Kezdőlap
METAR-TAF:

METAR-TAF

Repülőterek :

Grinnell, Iowa, Amerikai Egyesült Államok

földrajzi szélesség: 41-42-35N, földrajzi hosszúság: 092-44-09W, magasság: 307 m

Jelenlegi meteorológiai megfigyelések

A jelentés 17 perccel ezelõtt készült, 19:35 UTC
Déli szél 11 kt
Hőmérséklet 7°C
Páratartalom 57%
Légköri nyomás 1018 hPa
Látótávolság: 16.1 km
Derült ég

METAR: KGGI 221935Z AUTO 19011KT 10SM CLR 07/M01 A3006 RMK AO2 T00661015

Idő: 13:52 (19:52 UTC)


TAF: hiányzik

Meteorológiai megfigyelések és előrejelzések több, mint 4000 repülőtéren (METAR és TAF jelentéseket).

A térképen piros és sárga pontok jelzik az elérhető meteorológiai állomásokat.

Mozgassa az egeret a pont fölött, hogy megjelenjen az állomás neve.

Azután kattintson az időjárási megfigyelések és előrejelzések megtekintéséhez.

A térkép megváltoztatása: kattintson a fekete keresztel jelölt zöld gombra ráközelítéshez, a vonallal jelölt zöld gombra távolításhoz, vagy a zöld nyilakra a szomszédos térképek eléréséhez.


METAR-TAF: